Location: Abbey Hill
(34.0751°N, 84.0688°W)
Time: 11:04:19
(UTC+00:00)

Envisat - Pass Details

Date: 07 October 2021
Orbit: 764 x 766 km, 98.2° (Epoch: 20 October)

Event Time Altitude Azimuth Distance (km) Brightness Sun altitude
Rises 09:54:31 0° 25° (NNE) 3,233 6.7 -21.7°
Reaches altitude 10° 09:57:07 10° 37° (NE) 2,303 6.1 -21.1°
Maximum altitude 10:01:30 29° 96° (E) 1,376 5.0 -20.2°
Drops below altitude 10° 10:05:51 10° 156° (SSE) 2,291 5.7 -19.3°
Sets 10:08:25 0° 168° (SSE) 3,213 6.3 -18.8°
